TimeEDT,TemperatureF,Dew PointF,Humidity,Sea Level PressureIn,VisibilityMPH,Wind Direction,Wind SpeedMPH,Gust SpeedMPH,PrecipitationIn,Events,Conditions,WindDirDegrees,DateUTC
12:54 AM,48.9,37.0,64,30.02,10.0,NW,16.1,25.3,N/A,,Overcast,310,2013-05-25 04:54:00
1:54 AM,48.9,37.0,64,30.01,10.0,NW,16.1,20.7,N/A,,Mostly Cloudy,310,2013-05-25 05:54:00
2:54 AM,48.9,37.9,66,30.01,10.0,NW,11.5,-,N/A,,Overcast,310,2013-05-25 06:54:00
3:54 AM,50.0,37.0,61,30.01,10.0,NW,11.5,20.7,N/A,,Overcast,310,2013-05-25 07:54:00
4:54 AM,48.9,37.0,64,30.01,10.0,WNW,15.0,21.9,N/A,,Overcast,300,2013-05-25 08:54:00
5:54 AM,48.9,35.1,59,30.01,10.0,WNW,17.3,23.0,N/A,,Mostly Cloudy,300,2013-05-25 09:54:00
6:54 AM,48.9,34.0,56,30.02,10.0,WNW,13.8,21.9,N/A,,Scattered Clouds,300,2013-05-25 10:54:00
7:54 AM,51.1,34.0,52,30.02,10.0,NW,19.6,31.1,N/A,,Scattered Clouds,310,2013-05-25 11:54:00
8:54 AM,54.0,33.1,45,30.03,10.0,NW,18.4,29.9,N/A,,Scattered Clouds,310,2013-05-25 12:54:00
9:54 AM,55.9,33.1,42,30.03,10.0,NNW,25.3,33.4,N/A,,Scattered Clouds,330,2013-05-25 13:54:00
10:54 AM,59.0,34.0,39,30.03,10.0,NW,19.6,29.9,N/A,,Scattered Clouds,320,2013-05-25 14:54:00
11:54 AM,59.0,33.1,38,30.04,10.0,WNW,19.6,27.6,N/A,,Mostly Cloudy,300,2013-05-25 15:54:00
12:54 PM,60.1,32.0,35,30.02,10.0,NNW,20.7,28.8,N/A,,Mostly Cloudy,330,2013-05-25 16:54:00
1:54 PM,61.0,30.0,31,30.02,10.0,WNW,26.5,41.4,N/A,,Mostly Cloudy,300,2013-05-25 17:54:00
2:54 PM,62.1,28.9,29,30.01,10.0,WNW,20.7,31.1,N/A,,Mostly Cloudy,300,2013-05-25 18:54:00
3:54 PM,63.0,28.9,28,30.01,10.0,NW,21.9,31.1,N/A,,Mostly Cloudy,310,2013-05-25 19:54:00
4:54 PM,62.1,27.0,26,30.01,10.0,WNW,18.4,31.1,N/A,,Mostly Cloudy,300,2013-05-25 20:54:00
5:54 PM,64.0,27.0,25,30.01,10.0,WNW,20.7,27.6,N/A,,Mostly Cloudy,300,2013-05-25 21:54:00
6:54 PM,63.0,27.0,26,30.03,10.0,NW,23.0,27.6,N/A,,Mostly Cloudy,320,2013-05-25 22:54:00
7:54 PM,62.1,27.0,26,30.04,10.0,NW,18.4,25.3,N/A,,Scattered Clouds,310,2013-05-25 23:54:00
8:54 PM,59.0,28.0,31,30.05,10.0,NNW,11.5,-,N/A,,Scattered Clouds,330,2013-05-26 00:54:00
9:54 PM,57.0,28.9,34,30.08,10.0,NNW,11.5,-,N/A,,Partly Cloudy,340,2013-05-26 01:54:00
10:54 PM,55.0,30.0,38,30.09,10.0,NNW,8.1,-,N/A,,Partly Cloudy,340,2013-05-26 02:54:00
11:54 PM,55.0,30.0,38,30.09,10.0,West,10.4,-,N/A,,Partly Cloudy,270,2013-05-26 03:54:00